BEIDOU-3 G2 (C60)

Last updated on Mon Oct 20 2025 00:03:25 GMT+0000 (Coordinated Universal Time)

1 45344U 20017A 25292.14043664 -.00000142 00000+0 00000+0 0 9994 2 45344 2.8972 42.7276 0002673 260.1169 215.6318 1.00272233 20841
UTC large
Height (km)
Speed (km/s)
/
Latitude / Longitude
Inclination (degrees)
Orbital Period (minutes)
Azimuth
Elevation
Range (km)
Doppler Factor

Next 0 passes for location: London (51.5072 / 0.1276)

Sorry there are no passes over London.